Fairbanks, AK

11:15 AM AKDT on July 28, 2017 (GMT -0800)
Fairbanks International

Weather History for PAFA - July, 2013

Change the Weather History Date:

Friday, July 19, 2013

  Actual Average Record
Temperature  
Mean Temperature 61 °F 62 °F  
Max Temperature 64 °F 73 °F 86 °F (1962)
Min Temperature 58 °F 52 °F 36 °F (1933)
Degree Days  
Heating Degree Days 4 3  
Month to date heating degree days 54 57  
Since 1 June heating degree days 125 217  
Since 1 July heating degree days 54 57  
Cooling Degree Days 0 1  
Month to date cooling degree days 25 23  
Year to date cooling degree days 173 47  
Since 1 June cooling degree days 160 46  
Growing Degree Days 10 (Base 50)    
Moisture  
Dew Point 55 °F    
Average Humidity 85    
Maximum Humidity 93    
Minimum Humidity 67    
Precipitation  
Precipitation 0.05 in 0.08 in 1.02 in (1986)
Month to date precipitation 0.96 1.28  
Year to date precipitation 3.73 4.81  
Snow  
Snow 0.00 in 0.00 in 0.00 in (2002)
Month to date snowfall 0.0 0.0  
Since 1 June snowfall 0.0 0.0  
Since 1 July snowfall 0.0 0.0  
Snow Depth 0.00 in    
Sea Level Pressure  
Sea Level Pressure 30.09 in    
Wind  
Wind Speed 6 mph (SW)    
Max Wind Speed 15 mph    
Max Gust Speed 23 mph    
Visibility 6 miles    
Events Rain    
T = Trace of Precipitation, MM = Missing Value Source: NWS Daily Summary

Daily Weather History Graph

Daily Weather History Graph

Search for Another Location

Airport or City:

Trip Planner

Search our weather history database for the weather conditions in past years. The results will help you decide how hot, cold, wet, or windy it might be!

Date:

Astronomy

Jul. 19, 2013 Rise Set
Actual Time 4:08 AM AKDT 11:44 PM AKDT
Civil Twilight 2:30 AM AKDT 1:25 AM AKDT
Nautical Twilight Sun does not set Sun does not set
Astronomical Twilight Sun does not set Sun does not set
Moon 8:48 PM AKDT (7/19) 1:14 AM AKDT (7/19)
Length of Visible Light 22h 55m
Length of Day
19h 36m
Waxing Gibbous, 88% of the Moon is Illuminated
Jul 19
Waxing Gibbous
Jul 22
Full
Jul 29
Last Quarter
Aug 6
New
Aug 14
First Quarter

Hourly Weather History & Observations

Time (AKDT) Temp. Dew Point Humidity Pressure Visibility Wind Dir Wind Speed Gust Speed Precip Events Conditions
12:18 AM 60.1 °F 57.0 °F 90% 30.06 in 1.0 mi Calm Calm - 0.01 in Rain Rain
12:53 AM 60.1 °F 57.9 °F 93% 30.07 in 1.5 mi SSW 3.5 mph - 0.08 in Rain Light Rain
1:20 AM 60.1 °F 57.0 °F 90% 30.06 in 2.0 mi SSW 3.5 mph - 0.01 in Rain Light Rain
1:53 AM 59.0 °F 57.0 °F 93% 30.07 in 2.0 mi SSW 3.5 mph - 0.02 in Rain Light Rain
2:53 AM 59.0 °F 57.0 °F 93% 30.07 in 2.0 mi Calm Calm - 0.00 in Rain Light Rain
3:53 AM 59.0 °F 57.0 °F 93% 30.07 in 1.5 mi South 5.8 mph - 0.00 in Rain Light Rain
4:53 AM 59.0 °F 55.9 °F 90% 30.07 in 1.0 mi Variable 3.5 mph - 0.01 in Rain Light Rain
5:22 AM 59.0 °F 55.9 °F 90% 30.06 in 2.0 mi SSW 5.8 mph - 0.00 in Rain Light Rain
5:53 AM 59.0 °F 55.9 °F 90% 30.07 in 4.0 mi SSW 4.6 mph - 0.00 in   Overcast
6:53 AM 59.0 °F 55.9 °F 90% 30.07 in 6.0 mi SW 5.8 mph - N/A   Overcast
7:53 AM 60.1 °F 57.0 °F 90% 30.08 in 5.0 mi SW 5.8 mph - 0.00 in   Overcast
8:21 AM 60.1 °F 57.0 °F 90% 30.07 in 6.0 mi SW 6.9 mph - 0.00 in   Light Drizzle
8:53 AM 60.1 °F 55.9 °F 86% 30.09 in 6.0 mi WSW 10.4 mph 19.6 mph 0.00 in   Light Drizzle
9:19 AM 60.1 °F 55.9 °F 86% 30.08 in 7.0 mi SW 6.9 mph - 0.00 in   Overcast
9:53 AM 60.1 °F 55.9 °F 86% 30.09 in 7.0 mi SW 8.1 mph - 0.00 in   Light Drizzle
10:16 AM 59.0 °F 55.9 °F 90% 30.08 in 5.0 mi SW 8.1 mph - 0.00 in   Light Drizzle
10:35 AM 59.0 °F 55.9 °F 90% 30.08 in 2.0 mi SW 8.1 mph 17.3 mph 0.01 in   Light Drizzle
10:53 AM 59.0 °F 55.9 °F 90% 30.10 in 4.0 mi Variable 5.8 mph - 0.01 in Rain Light Rain
11:53 AM 57.9 °F 55.0 °F 90% 30.11 in 5.0 mi SW 8.1 mph - 0.00 in Rain Light Rain
12:28 PM 59.0 °F 55.0 °F 87% 30.10 in 7.0 mi WSW 8.1 mph - 0.00 in   Overcast
12:53 PM 60.1 °F 55.0 °F 83% 30.11 in 7.0 mi WSW 11.5 mph - 0.00 in   Overcast
1:53 PM 61.0 °F 55.0 °F 81% 30.11 in 7.0 mi WSW 6.9 mph 17.3 mph 0.00 in Rain Light Rain
2:53 PM 60.1 °F 55.0 °F 83% 30.11 in 7.0 mi WSW 13.8 mph 20.7 mph 0.00 in   Light Drizzle
3:53 PM 60.1 °F 55.0 °F 83% 30.11 in 7.0 mi SW 8.1 mph - 0.00 in   Light Drizzle
4:53 PM 60.1 °F 55.0 °F 83% 30.10 in 7.0 mi WSW 10.4 mph - 0.02 in   Light Drizzle
5:53 PM 61.0 °F 55.9 °F 83% 30.10 in 6.0 mi WSW 11.5 mph 18.4 mph 0.00 in   Light Drizzle
6:53 PM 62.1 °F 55.0 °F 78% 30.09 in 7.0 mi WSW 10.4 mph 18.4 mph 0.00 in Rain Light Rain
7:21 PM 63.0 °F 54.0 °F 72% 30.08 in 10.0 mi WSW 12.7 mph - 0.00 in   Mostly Cloudy
7:53 PM 63.0 °F 54.0 °F 72% 30.09 in 10.0 mi SW 13.8 mph 18.4 mph 0.00 in   Light Drizzle
8:53 PM 60.1 °F 53.1 °F 78% 30.09 in 10.0 mi WSW 10.4 mph - 0.00 in   Mostly Cloudy
9:53 PM 60.1 °F 52.0 °F 75% 30.10 in 10.0 mi WSW 10.4 mph 17.3 mph N/A   Mostly Cloudy
10:53 PM 59.0 °F 51.1 °F 75% 30.11 in 10.0 mi West 15.0 mph 23.0 mph 0.00 in   Mostly Cloudy
11:53 PM 57.9 °F 51.1 °F 78% 30.11 in 10.0 mi WSW 8.1 mph - N/A   Mostly Cloudy